Location: Bessat
(45.8735°N, 1.9924°E)
Time: 16:58:41
(UTC+00:00)

ERS-1 Rocket - Pass Details

Date: 11 May 2021
Orbit: 753 x 757 km, 98.4° (Epoch: 21 June)

Event Time Altitude Azimuth Distance (km) Brightness Sun altitude
Exits shadow 22:10:20 28° 218° (SW) 1,400 4.1 -22.3°
Maximum altitude 22:12:15 38° 263° (W) 1,143 4.0 -22.4°
Drops below altitude 10° 22:16:56 10° 331° (NNW) 2,292 6.6 -22.7°
Sets 22:19:24 0° 339° (NNW) 3,222 7.7 -22.9°
